Weather observations for the past three days for
Augusta, Augusta State Airport
Imperial (Metric)
Date Time (edt) Wind (mph) Vis. (mi.) Weather Sky Cond. Temperature (ºF) Relative Humidity Wind Chill (°F) Heat Index (°F) Pressure Precipitation (in)
Air Dwpt 6 hour altimeter (in) sea level (mb) 1 hr 3 hr 6 hr
Max. Min.
18 02:53 S 3 8.00 Overcast SCT005 OVC110 72 69.1 91% 29.76 1007.5
18 01:53 S 3 8.00 Overcast OVC120 72 70 75 72 94% 29.77 1007.7
18 00:53 S 3 10.00 Overcast OVC120 72 70 94% 29.77 1007.8
17 23:53 S 3 10.00 Fair CLR 72 70 94% 29.77 1007.8
17 22:53 Calm 10.00 Fair CLR 73 70 90% 29.78 1008.1
17 21:53 Calm 10.00 Fair CLR 73 70 90% 29.8 1009.0
17 20:53 S 6 10.00 Mostly Cloudy BKN050 BKN080 75 71.1 88% 75 29.8 1009.0
17 19:53 SE 3 10.00 Fair CLR 75 72 89.1 73.9 90% 74 29.8 1008.8 0.11
17 18:53 N 3 3.00 Rain Fog/Mist FEW023 BKN070 OVC110 73.9 72 94% 29.81 1009.1 0.11
17 17:53 NW 13 G 21 9.00 Thunderstorm FEW036 BKN045 BKN060 79 69.1 72% 82 29.79 1008.7
17 16:53 Vrbl 6 10.00 Overcast FEW039 BKN050 OVC110 80.1 70 71% 83 29.77 1007.9
17 15:53 S 10 G 22 10.00 Fair CLR 86 70 59% 91 29.76 1007.6
17 14:53 S 13 G 22 10.00 Partly Cloudy SCT037 87.1 70 57% 92 29.78 1008.0
17 13:53 S 8 10.00 Mostly Cloudy SCT036 BKN047 87.1 72 87.1 77 61% 94 29.78 1008.3
17 12:53 Vrbl 6 10.00 Mostly Cloudy SCT038 BKN047 84.9 70 61% 89 29.8 1009.0
17 11:53 Vrbl 6 10.00 Fair CLR 86 70 59% 91 29.81 1009.2
17 10:53 Calm 10.00 Fair CLR 84 70 63% 88 29.81 1009.1
17 09:53 W 7 10.00 Fair CLR 82 69.1 65% 85 29.8 1008.7
17 08:53 Vrbl 5 10.00 Fair CLR 80.1 68 67% 83 29.79 1008.6
17 07:53 NW 6 10.00 Fair CLR 77 68 77 71.1 74% 79 29.79 1008.5
17 06:53 W 5 10.00 Fair CLR 73.9 66.9 79% 29.77 1008.0
17 05:53 W 7 10.00 Fair CLR 73 66.9 81% 29.75 1007.3
17 04:53 W 7 10.00 Fair CLR 73 70 90% 29.71 1005.8
17 03:53 NW 9 10.00 Partly Cloudy FEW018 SCT043 73 71.1 94% 29.68 1004.8
17 02:53 Vrbl 3 10.00 Overcast BKN009 OVC013 72 70 94% 29.67 1004.4
17 01:53 Vrbl 3 10.00 Overcast BKN012 OVC021 71.1 69.1 81 71.1 94% 29.65 1003.8
17 00:53 S 5 10.00 A Few Clouds FEW060 FEW095 71.1 69.1 94% 29.64 1003.5
16 23:53 S 3 10.00 Mostly Cloudy BKN049 BKN060 72 69.1 91% 29.66 1004.0
16 22:53 S 6 10.00 Mostly Cloudy FEW060 BKN090 73 70 90% 29.66 1004.3
16 21:53 S 7 10.00 Fair CLR 78.1 69.1 74% 80 29.68 1004.9
16 20:53 S 7 10.00 Fair CLR 80.1 69.1 69% 83 29.69 1005.2
16 19:53 S 7 10.00 Fair CLR 81 70 90 81 69% 84 29.7 1005.4
16 18:53 S 7 10.00 Fair CLR 82.9 70 65% 87 29.7 1005.5
16 17:53 Vrbl 6 10.00 Fair CLR 88 69.1 54% 92 29.69 1005.2
16 16:53 Vrbl 3 10.00 A Few Clouds FEW050 89.1 68 50% 93 29.69 1005.1
16 15:53 Vrbl 6 10.00 Fair CLR 89.1 66.9 48% 92 29.7 1005.3
16 14:53 SW 7 10.00 Fair CLR 87.1 66.9 51% 90 29.71 1005.8
16 13:53 W 9 G 21 10.00 A Few Clouds FEW045 87.1 66.9 89.1 75.9 51% 90 29.72 1006.1
16 12:53 NW 10 10.00 A Few Clouds FEW042 87.1 69.1 55% 91 29.72 1006.2
16 11:53 NW 12 G 20 10.00 A Few Clouds FEW035 FEW060 84.9 69.1 59% 89 29.72 1006.2
16 10:53 W 8 G 17 10.00 Mostly Cloudy FEW028 BKN075 82 70 67% 86 29.71 1005.9
16 09:53 W 7 10.00 Overcast SCT019 OVC045 80.1 72 76% 84 29.71 1005.9
16 08:53 Calm 10.00 Mostly Cloudy SCT015 BKN020 79 72 79% 82 29.72 1006.1
16 07:53 Vrbl 3 7.00 Mostly Cloudy BKN005 75.9 71.1 75.9 71.1 85% 76 29.72 1006.1
16 06:53 S 6 3.00 Fog/Mist OVC003 73 71.1 94% 29.71 1005.8
16 05:53 S 6 4.00 Fog/Mist OVC003 72 70 94% 29.71 1005.6
16 04:53 S 6 7.00 A Few Clouds FEW005 71.1 69.1 94% 29.71 1005.8
16 03:53 SE 5 9.00 Fair CLR 71.1 68 90% 29.71 1005.8
16 02:53 S 3 10.00 Fair CLR 72 68 87% 29.73 1006.3
16 01:53 S 6 10.00 Fair CLR 72 66.9 82.9 72 84% 29.73 1006.4
16 00:53 S 6 10.00 Fair CLR 73 66.9 81% 29.74 1006.9
15 23:53 Calm 10.00 Fair CLR 73.9 68 82% 29.75 1007.2
15 22:53 S 3 10.00 Fair CLR 75 68 79% 76 29.76 1007.7
15 21:53 S 6 10.00 Fair CLR 77 69.1 77% 79 29.77 1008.0
15 20:53 S 5 10.00 Fair CLR 80.1 70 71% 83 29.77 1007.8
15 19:53 Vrbl 3 10.00 Fair CLR 82.9 71.1 90 82.9 67% 88 29.78 1008.3
15 18:53 S 6 10.00 Fair CLR 84.9 73 68% 92 29.77 1007.9
15 17:53 Vrbl 3 10.00 A Few Clouds FEW049 88 71.1 57% 94 29.76 1007.6
15 16:53 W 3 10.00 Fair CLR 90 68 48% 94 29.77 1007.8
15 15:53 S 5 10.00 Fair CLR 88 69.1 54% 92 29.78 1008.4
15 14:53 Calm 10.00 Partly Cloudy SCT047 89.1 69.1 52% 94 29.8 1008.8
15 13:53 Vrbl 7 10.00 A Few Clouds FEW040 87.1 70 88 73 57% 92 29.8 1009.0
15 12:53 Vrbl 7 10.00 Fair CLR 86 69.1 57% 90 29.82 1009.7
15 11:53 Vrbl 3 10.00 A Few Clouds FEW070 84 68 59% 87 29.83 1010.1
15 10:53 S 5 10.00 Mostly Cloudy BKN075 81 68 65% 84 29.84 1010.3
15 09:53 S 6 10.00 Mostly Cloudy BKN085 80.1 66.9 64% 82 29.84 1010.4
15 08:53 SW 3 10.00 Mostly Cloudy BKN075 77 68 74% 79 29.86 1011.1
15 07:53 Calm 10.00 Mostly Cloudy BKN100 73 66.9 73 66.9 81% 29.87 1011.3
15 06:53 Calm 10.00 Fair CLR 71.1 66 84% 29.87 1011.2
15 05:53 Calm 10.00 Fair CLR 68 64.9 90% 29.86 1010.9
15 04:53 SW 5 10.00 Fair CLR 66.9 64 91% 29.86 1011.0
15 03:53 S 5 10.00 Fair CLR 66.9 64 91% 29.86 1010.9
Date Time (edt) Wind (mph) Vis. (mi.) Weather Sky Cond. Air Dwpt Max. Min. Relative Humidity Wind Chill (°F) Heat Index (°F) altimeter (in) sea level (mb) 1 hr 3 hr 6 hr
6 hour
Temperature (ºF) Pressure Precipitation (in)